{"data":{"norad_id":57524,"intl_designator":"2023-115D","name":"STARLINK-30260","alt_names":[],"object_type":"PAYLOAD","status":"ACTIVE","operator":null,"country":"US","launch_date":"2023-08-08","launch_site_code":"AFWTR","launch_vehicle":null,"mission":null,"orbit_class":"UNKNOWN","rcs_meters":null,"size_class":null,"mass_kg":null,"dimensions":null,"purposes":["comms"],"wikipedia_slug":null,"has_3d_model":false,"image_url":null,"decayed_at":null,"tle_current":{"epoch":"2026-05-24T21:06:25.611840Z","epoch_age_seconds":95945,"freshness":"FRESH","line1":"1 57524U 23115D   26144.87946310  .00000666  00000+0  33721-4 0  9997","line2":"2 57524  43.0026 291.3258 0001928 268.9407  91.1224 15.27575714154009","mean_motion":15.27575714,"eccentricity":0.0001928,"inclination_deg":43.0026,"raan_deg":291.3258,"arg_perigee_deg":268.9407,"mean_anomaly_deg":91.1224,"bstar":3.3721e-5,"rev_number":15400,"period_min":94.267013202856,"perigee_km":481.73909074186,"apogee_km":484.38476904922,"semimajor_km":6861.1989298955,"source":"CELESTRAK","updated_at":"2026-05-25T13:38:18.332193Z"}}}